Regional Weather Roundup
Issued by NWS Charleston, SC

Home | Current Version | Previous Version | Text Only | Print | Product List | Glossary On
Versions: 1 2 3 4 5 6 7 8 9 10 11 12 13 14 15 16 17 18 19 20 21 22 23 24 25 26 27 28 29 30 31 32 33 34 35 36 37 38 39 40 41 42 43 44 45 46 47 48 49 50
000
ASUS42 KCHS 010912
RWRCHS

REGIONAL WEATHER ROUNDUP
NATIONAL WEATHER SERVICE CHARLESTON SC
500 AM EDT TUE SEP 01 2015

NOTE: "FAIR" INDICATES FEW OR NO CLOUDS BELOW 12,000 FEET WITH NO
SIGNIFICANT WEATHER AND/OR OBSTRUCTIONS TO VISIBILITY.

NOT ALL STATIONS ARE QUALITY CONTROLLED BY THE NATIONAL
WEATHER SERVICE. USE DATA WITH CAUTION...ESPECIALLY
DEWPOINT OBSERVATIONS.

SCZ027-030-031-034>040-042>050-011000-
...SOUTHEAST SOUTH CAROLINA...

CITY           SKY/WX    TMP DP  RH WIND       PRES   REMARKS
N CHARLESTON   PTCLDY    72  70  93 N3        30.05F
WATERFRONT PRK   N/A     76  73  90 VRB2      30.03F
MOUNT PLEASANT FAIR      73  72  94 CALM      30.06S FOG
JOHNS ISLAND   FAIR      73  72  94 CALM      30.06S
PINOPOLIS        N/A     79  73  83 NW5       29.99R
MONCKS CORNER  FAIR      70  68  94 CALM      30.06S FOG
SUMMERVILLE    FAIR      68  68 100 CALM      30.07F
BEAUFORT MCAS  CLEAR     73  71  93 CALM      30.06F
BEAUFORT ARPT  FAIR      73  73 100 CALM      30.05S FOG
HILTON HEAD IS CLEAR     73  73 100 CALM      30.06S
WALTERBORO       N/A     68  66  94 CALM      30.07F FOG
ALLENDALE      FOG       68  68 100 CALM      30.07S VSB 1/4

...SOUTHERN MIDLANDS AND PEE DEE...

CITY           SKY/WX    TMP DP  RH WIND       PRES   REMARKS
GEORGETOWN     NOT AVBL
KINGSTREE      NOT AVBL
ORANGEBURG     CLEAR     68  67  96 CALM      30.07F FOG
BARNWELL       FAIR      70  68  94 CALM      30.08S
AIKEN          NOT AVBL
MANNING        FAIR      66  66 100 CALM      30.06F
COLUMBIA       CLEAR     70  66  87 CALM      30.06F
SUMTER         CLEAR     70  68  94 E1        30.05S
FLORENCE       CLEAR     69  68  96 CALM      30.07S
MYRTLE BEACH   CLEAR     72  66  83 CALM      30.08R
N MYRTLE BEACH PTCLDY    72  71  97 NW3       30.06R

$$

GAZ063-065-086>088-099>101-113>116-118-119-134>141-150-011000-
...SOUTHEAST GEORGIA...

CITY           SKY/WX    TMP DP  RH WIND       PRES   REMARKS
SAVANNAH ARPT  CLEAR     73  71  93 N3        30.05F
HUNTER AAF     CLEAR     75  75 100 E2        30.03S
FORT STEWART   CLEAR     73  71  93 CALM      30.03F
STATESBORO     PTCLDY    67  32  27 CALM      30.07S
SYLVANIA       SUNNY     68  68 100 CALM      30.08S
CLAXTON        NOT AVBL

...CSRA...CENTRAL AND FAR SOUTHEAST GEORGIA...

CITY           SKY/WX    TMP DP  RH WIND       PRES   REMARKS
THOMSON        CLEAR     67  67 100 CALM      30.13S
AUGUSTA-BUSH   CLEAR     66  66 100 CALM      30.07R
AUGUSTA-DANIEL CLEAR     74  68  81 CALM      30.08F
SWAINSBORO     FAIR     N/A N/A N/A CALM      30.08F
VIDALIA        CLEAR     70  70 100 CALM      30.07S
EASTMAN        FOG       68  68 100 CALM      30.09F VSB 3/4
HAZLEHURST     FAIR      73  73 100 CALM      30.05F
ALMA           CLEAR     72  71  97 CALM      30.05S FOG
WAYCROSS       CLEAR     77  77 100 CALM      30.04F FOG
JESUP          FAIR      77  75  94 CALM      30.05S
BAXLEY         FAIR      72  72 100 CALM      30.05S
BRUNSWICK      MOCLDY    73  72  94 CALM      30.05S
SAINT SIMONS   MOCLDY    75  75 100 CALM      30.03F

$$

SCZ027-028-034-036>038-045-046-048>050-GAZ119-141-011000-
...LAKE AND SUPPLEMENTAL COASTAL OBSERVATIONS...

STATION/POSITION TIME  TEMP    WIND        PRES    WAVE   SWELL
                       AIR SEA DIR/SP/G            HT/PER HT/PER/DIR
                 (UTC) (F)     (DEG/KT/KT) (MB)    (FT/S) (FT/S/D)
UPR LAKE MARION  NOT AVBL
WINYAH BAY       NOT AVBL
LAKE MURRAY      0800   74     300/  3/  4 1017.9S
ACE BASIN NERRS  NOT AVBL
FORT PULASKI     0800   79 83   10/  5/  6 1018.1
SAPELO ISLAND    0800   76      60/  2     1017.0F

$$

ANZ835-935-AMZ111-154-330-350-352-354-370-450-454-472-011000-
...C-MAN AND BUOY OBSERVATIONS...

STATION/POSITION TIME  TEMP    WIND        PRES    WAVE   SWELL
                       AIR SEA DIR/SP/G            HT/PER HT/PER/DIR
                 (UTC) (F)     (DEG/KT/KT) (MB)    (FT/S) (FT/S/D)
BUOY 41004       0850   81 82  300/  6/  8 1017.0F   3/ 8   3/ 8
BUOY 41008       0850   82 85   90/  4/  4 1017.6F   2/ 8   2/100/ 8
FOLLY BEACH CMAN 0900   74     300/  3/  4 1017.8S
CAPERS NEARSHORE 0808   80     310/  4/  6 1017.9F
FRIPP NEARSHORE  0800   80      CALM  /  2 1017.6F


STATION/POSITION TIME  TEMP    WIND        PRES    WAVE   SWELL
                       AIR SEA DIR/SP/G            HT/PER HT/PER/DIR
                 (UTC) (F)     (DEG/KT/KT) (MB)    (FT/S) (FT/S/D)
5E ST. MARYS GA  0821      85                N/A     2/ 8
FRYING PAN BUOY  0850   81 81  260/ 10/ 10 1017.6F   3/ 6   2/160/ 6
BUOY 41025       0850   79 84  240/  4/  6 1016.4F   4/ 8   3/150/ 8
CAPE LOOKOUT NC  0800   78     320/ 10/ 13 1016.1R
BUOY 41002       0850   84 84  250/  8/ 10 1018.1F   4/ 7   3/220/ 7
BUOY 41010       0820   84 85  160/  6/  8 1017.6F
ST AUGUSTINE FL  0900   78 83  240/  3/  4 1017.4F


$$


USA.gov is the U.S. government's official web portal to all federal, state and local government web resources and services.